Wind_Speed
24 24 23 20 18 17 17 17 16 15 14 13 12 11 10 10 10 10 11 10 10 8 8 7 7 7 6 7 8 9 8 7
22 23 23 22 21 19 18 18 17 16 15 13 12 11 11 11 11 12 11 12 12 11 9 9 8 7 7 7 8 8 6 7
22 24 24 24 22 22 20 19 17 17 16 16 14 13 13 13 13 13 12 13 12 11 11 9 8 7 7 7 7 4 7 8
22 25 26 26 22 23 23 22 21 21 20 18 15 14 12 11 15 14 14 14 13 12 11 9 6 4 6 7 4 7 7 6
21 23 25 26 23 21 22 20 20 21 20 20 18 18 19 16 15 16 16 15 14 13 11 9 9 8 7 7 9 7 7 8
19 20 24 25 18 18 17 19 20 19 21 23 22 21 20 16 15 14 14 14 14 13 12 13 12 12 10 10 9 9 7 5
16 20 23 24 26 19 20 21 20 20 20 23 20 18 17 16 16 16 14 15 16 16 14 14 14 13 13 12 11 12 12 7
15 17 23 24 25 24 20 21 21 25 25 23 25 21 18 16 16 16 17 18 17 18 17 15 14 14 15 15 15 14 13 10
18 20 21 22 25 25 22 18 20 25 26 29 30 28 24 22 16 16 15 16 21 20 20 17 16 16 16 17 16 16 14 13
13 14 17 18 18 22 26 20 23 25 25 26 28 31 29 30 23 19 17 19 21 19 19 18 17 16 17 18 16 15 15 14
13 13 17 20 18 18 21 24 27 26 25 29 29 31 30 31 27 20 24 25 24 22 18 17 17 16 15 14 15 14 16 14
10 12 13 15 16 17 20 21 25 29 26 29 27 30 33 30 30 27 29 27 25 22 21 19 18 17 16 15 13 13 14 14
5 2 2 8 11 14 18 21 24 27 30 34 33 33 35 31 31 33 32 30 27 29 26 23 21 20 19 15 13 14 14 16
13 11 9 5 5 11 12 14 17 20 22 26 30 32 35 35 34 36 39 34 31 31 30 25 23 25 23 20 15 13 15 15
14 13 13 13 11 0 7 12 15 17 18 19 19 22 23 26 34 36 39 41 38 40 38 35 29 29 25 20 14 16 21 18
14 14 14 14 11 4 6 7 11 12 14 16 18 20 22 23 24 29 39 46 44 44 42 43 34 33 32 33 19 14 18 15
11 12 12 14 13 12 9 10 13 15 17 20 22 24 25 23 24 26 35 45 48 49 47 46 45 36 36 36 25 20 18 16
13 15 16 17 16 13 14 15 16 19 20 21 22 22 25 26 28 28 30 37 46 49 52 49 48 44 37 37 37 33 25 19
15 17 17 19 19 19 18 18 19 19 20 22 26 26 28 27 26 30 33 35 38 45 51 54 53 47 46 43 39 35 26 25
15 16 18 17 19 20 20 21 20 22 21 20 20 23 28 26 30 29 32 34 38 43 50 55 56 55 53 47 46 45 40 34
Wind_Direction
197 197 196 201 204 206 207 209 208 208 207 205 201 201 201 204 207 203 209 219 230 231 233 232 232 234 228 220 217 194 189 192
201 203 204 205 206 209 213 213 213 215 215 214 212 211 214 214 220 220 221 226 233 239 242 246 243 238 231 225 220 208 194 203
208 209 210 211 213 215 215 217 217 219 220 218 217 216 218 222 216 223 226 232 236 238 243 246 248 240 229 215 203 201 200 201
213 216 215 217 214 219 218 219 219 219 219 219 214 205 209 201 225 224 227 233 238 239 239 239 231 217 221 201 176 203 188 182
214 218 221 220 214 216 217 215 213 215 213 220 212 221 224 222 226 228 230 231 235 234 232 218 201 191 197 192 207 197 195 187
217 218 222 221 216 219 219 216 216 216 218 223 223 225 229 213 213 211 213 222 210 214 216 218 221 211 208 199 191 190 191 199
221 226 231 232 225 218 217 219 224 223 226 229 223 219 223 217 218 215 215 216 222 224 218 225 223 219 210 206 195 198 202 195
230 228 240 240 236 227 225 224 225 228 227 229 230 226 227 224 225 224 220 225 223 227 223 219 216 211 210 205 202 205 208 205
236 245 250 252 248 240 233 232 230 238 241 241 244 239 234 232 229 230 229 230 230 228 225 215 206 204 203 207 206 208 207 201
245 257 256 257 258 253 249 239 242 242 244 246 245 245 246 242 238 233 228 230 236 231 223 211 201 197 200 201 200 198 200 193
239 238 248 265 266 257 252 250 248 251 250 249 252 256 257 246 243 233 236 237 235 226 215 210 202 196 195 194 194 188 195 186
222 226 249 261 264 254 254 249 252 252 247 257 258 261 256 254 244 238 243 238 230 219 211 209 207 199 193 189 190 191 186 188
81 72 280 249 263 265 263 260 257 258 257 256 259 263 268 262 252 242 246 238 228 227 218 207 203 199 185 183 187 195 194 193
63 59 48 30 244 255 273 279 278 280 273 266 265 264 263 263 257 249 250 241 231 226 221 207 205 198 192 185 188 200 204 201
66 57 51 43 45 200 286 287 295 289 290 290 290 284 278 272 263 249 244 244 234 235 232 218 206 204 201 196 188 214 193 203
57 50 37 30 35 358 300 285 289 287 280 275 283 280 275 274 272 267 251 245 239 240 234 229 213 211 208 208 216 211 187 185
25 17 10 7 0 343 326 301 293 292 288 281 283 279 273 268 266 263 257 251 247 241 236 230 226 217 214 209 215 204 203 199
349 343 337 332 330 323 312 305 297 290 284 282 285 282 279 276 276 269 264 261 253 245 240 235 227 222 220 214 213 206 207 202
339 333 329 322 316 309 300 296 292 291 288 281 277 275 283 282 277 274 273 264 261 253 241 240 236 223 221 218 218 216 208 210
331 325 318 311 306 301 297 294 293 289 286 282 281 280 275 275 283 281 274 270 265 258 249 243 238 234 225 214 213 220 217 206
Height
1512 1515 1518 1522 1525 1527 1529 1531 1533 1536 1537 1539 1540 1542 1543 1544 1545 1546 1548 1548 1549 1550 1551 1551 1552 1552 1553 1554 1554 1555 1559 1559
1512 1515 1518 1520 1523 1526 1529 1530 1532 1535 1537 1539 1540 1541 1542 1544 1545 1546 1547 1548 1548 1549 1549 1550 1551 1551 1552 1554 1555 1556 1560 1559
1510 1513 1516 1519 1521 1524 1527 1529 1531 1533 1536 1537 1538 1540 1541 1542 1544 1545 1547 1547 1547 1548 1549 1549 1550 1550 1551 1552 1555 1559 1558 1558
1506 1509 1512 1516 1519 1521 1524 1526 1528 1531 1533 1534 1537 1539 1539 1542 1541 1543 1544 1544 1545 1546 1546 1547 1549 1551 1550 1552 1556 1556 1557 1557
1504 1507 1510 1513 1517 1519 1521 1524 1526 1528 1530 1531 1533 1533 1535 1537 1538 1539 1540 1541 1541 1543 1544 1545 1547 1549 1551 1553 1554 1554 1555 1555
1503 1505 1507 1510 1516 1518 1521 1524 1525 1527 1527 1527 1529 1530 1531 1534 1537 1537 1538 1538 1540 1540 1541 1541 1542 1544 1546 1548 1550 1553 1554 1555
1501 1502 1503 1506 1509 1513 1515 1519 1521 1524 1524 1525 1527 1528 1529 1532 1533 1534 1535 1535 1535 1536 1537 1538 1539 1540 1541 1544 1547 1549 1550 1553
1500 1500 1500 1502 1505 1509 1511 1513 1517 1517 1517 1520 1522 1526 1528 1530 1530 1530 1531 1531 1532 1533 1534 1535 1536 1537 1539 1540 1543 1545 1547 1549
1493 1495 1498 1500 1502 1505 1507 1511 1511 1512 1513 1514 1516 1518 1521 1523 1526 1528 1530 1531 1529 1529 1530 1532 1533 1534 1536 1538 1540 1541 1543 1545
1490 1491 1492 1495 1497 1500 1503 1507 1508 1508 1510 1512 1513 1514 1515 1516 1520 1521 1524 1525 1527 1529 1529 1528 1531 1532 1533 1534 1536 1538 1540 1542
1488 1489 1489 1489 1492 1495 1497 1501 1503 1505 1507 1508 1508 1509 1512 1513 1515 1518 1517 1519 1520 1522 1526 1529 1529 1531 1533 1534 1534 1535 1536 1539
1482 1484 1485 1487 1488 1489 1491 1494 1496 1499 1502 1502 1505 1505 1506 1508 1510 1511 1511 1513 1514 1517 1520 1523 1527 1528 1529 1530 1534 1534 1534 1536
1481 1482 1482 1483 1485 1485 1487 1488 1491 1493 1495 1497 1498 1500 1501 1502 1504 1505 1505 1508 1509 1509 1512 1517 1521 1524 1524 1527 1528 1530 1531 1532
1482 1481 1481 1481 1481 1483 1483 1484 1485 1487 1488 1489 1491 1493 1494 1494 1497 1499 1499 1501 1503 1504 1506 1510 1514 1516 1518 1521 1524 1528 1527 1529
1480 1481 1481 1480 1479 1481 1481 1481 1481 1482 1483 1483 1485 1485 1486 1486 1488 1491 1492 1492 1492 1495 1499 1501 1504 1506 1511 1514 1516 1513 1519 1522
1480 1479 1479 1479 1480 1482 1481 1481 1481 1480 1478 1477 1477 1477 1477 1478 1481 1482 1483 1483 1486 1484 1488 1490 1496 1497 1500 1503 1505 1507 1508 1514
1479 1478 1478 1478 1478 1478 1478 1479 1480 1478 1475 1474 1473 1471 1470 1471 1471 1472 1473 1473 1475 1474 1476 1480 1483 1488 1489 1494 1495 1498 1502 1502
1478 1477 1475 1474 1473 1474 1473 1472 1471 1469 1469 1468 1468 1466 1464 1464 1465 1464 1464 1465 1465 1467 1468 1469 1473 1477 1481 1482 1484 1486 1491 1496
1475 1474 1472 1471 1469 1468 1468 1466 1464 1463 1462 1461 1459 1457 1455 1454 1455 1456 1455 1455 1457 1457 1456 1457 1461 1465 1468 1471 1477 1479 1482 1487
1470 1469 1467 1467 1465 1464 1462 1460 1458 1457 1456 1455 1453 1452 1451 1449 1447 1446 1447 1447 1446 1447 1446 1445 1446 1450 1453 1456 1459 1467 1472 1476